Vertical_Velocity
1 4 -8 2 6 -3 0 -2 0 5 -11 8 2 6 8 7 2 9 -4 3 -3 -2 -5 -1 -0 3 2 -3 -6 -3 -0 -2 0 4 2 4 5 5 4 2 -1 -2 -1 1
-2 -5 -12 10 9 1 -1 4 0 -9 4 -1 2 -9 -4 -5 5 4 4 -7 3 -1 -3 -0 3 2 2 6 -3 -3 1 2 3 -5 -3 -3 -4 1 -1 -3 -3 -3 -3 -4
-3 -5 8 -4 3 3 2 4 -1 -1 -7 1 3 -12 2 -0 4 9 3 1 3 4 6 1 4 4 3 3 7 11 3 -1 -1 -3 -4 -4 -2 -7 -9 -4 -2 -3 -2 -1
-0 1 -1 -1 1 6 -7 5 1 -2 -1 -10 15 -11 -34 10 -5 -2 4 5 5 3 -4 4 2 2 -0 3 6 9 -1 1 -2 -5 -6 -5 -15 -10 -4 -5 -4 -2 3 1
-6 0 8 3 -6 9 -5 4 -3 -7 -3 9 -35 20 -32 12 -5 -10 -1 1 3 2 4 0 -2 -2 3 2 1 -7 -7 -2 -1 -4 -5 -9 -4 -3 -3 -7 -5 -2 -0 -1
0 9 -1 -4 12 -2 5 3 4 3 1 1 -1 7 -6 -0 -2 -5 -5 -4 -0 2 0 1 1 1 -0 3 -3 -8 -3 -6 -12 -13 -10 -6 -7 -7 -8 -4 -1 -1 -4 -3
4 -1 -2 2 5 3 2 -0 -4 -4 -2 -7 -3 -2 -8 -1 3 1 -1 2 3 1 -3 1 2 1 2 -1 -3 -5 -7 -7 -2 -5 -2 -3 -3 -8 -8 -11 -14 -5 -1 -1
-2 -6 1 -3 2 4 4 -1 -2 -2 -2 -8 -1 -10 -4 -7 -2 2 6 6 3 -0 2 2 1 0 -1 2 1 -2 -4 -4 -2 -6 -9 -12 -12 -10 -8 -5 -4 -1 -2 -5
1 2 5 -2 2 3 1 3 1 5 4 1 -3 -9 6 -3 -5 -4 -4 -3 -2 1 -1 -2 -0 -0 -2 -3 -1 -1 -5 -6 -9 -11 -6 -6 -7 -4 -1 0 -2 -1 -4 -2
-6 2 0 1 0 -5 0 -3 -7 -0 -3 -1 -4 -3 -10 -6 -4 0 -2 0 -1 -3 -6 -6 -4 -1 -1 -3 0 -7 -8 -8 -6 -5 -6 -4 -2 -2 -3 -6 -3 -1 2 -4
5 9 -0 3 1 4 2 -1 1 0 1 -1 1 -1 -18 -16 24 7 5 2 1 -0 3 5 -0 -2 -5 -4 -10 -9 -6 -2 -3 -1 -5 -1 -0 -1 -4 -3 1 -4 -2 -3
1 4 -4 -2 5 -1 -1 -3 -2 -1 -4 -3 3 -22 -12 -6 7 -13 29 8 11 2 2 -2 -3 -8 1 -0 -3 -7 -7 -6 1 -3 -0 0 -3 -3 -1 -2 -2 -1 1 -3
-0 -2 -0 -3 -6 -1 3 1 -2 5 8 -9 13 -31 -4 -2 -2 -4 -13 7 -3 -5 -1 -1 -1 -3 -6 -11 -4 1 2 1 2 3 2 -3 -4 -5 -5 -2 -0 -2 -1 -4
-14 5 0 -5 -0 -0 -4 1 -5 9 1 -9 -21 -32 -20 18 9 -2 1 -1 -9 -0 4 -8 -7 -5 1 6 3 4 3 1 -0 -2 -6 -3 -5 -2 -4 -5 0 -2 -0 0
2 1 3 -1 1 2 5 3 -11 3 -10 15 -28 1 -3 7 1 9 20 17 13 12 -3 3 3 -1 2 2 2 -0 -1 -1 -2 -5 -3 -5 -1 -2 1 -2 4 -3 -2 -0
-6 -17 -6 -11 -5 8 6 -12 6 -6 -9 -4 8 -20 49 -8 12 15 6 -2 -1 -3 -0 0 -1 3 2 -2 0 1 0 -1 -2 -0 0 -2 0 3 -4 2 -1 -1 -1 1
3 -2 1 -14 -1 3 -4 -15 -5 2 -1 5 -2 12 -7 -2 -0 -5 -3 -1 -2 -1 2 1 2 3 5 5 2 2 -3 -2 -2 -2 0 -1 -1 -1 -1 -2 -4 -4 1 -1
2 5 7 -7 2 6 -11 -4 -3 -3 6 2 6 3 3 -0 -4 -4 0 6 8 8 6 4 5 4 5 3 -1 -2 0 3 -2 -0 -2 1 1 -2 1 -2 -5 -2 3 -1
-0 10 -1 2 2 -18 -31 -6 -6 -0 5 -3 -3 -2 0 -1 -2 5 3 0 -0 1 1 -0 0 0 -1 2 6 -2 -1 1 -0 3 0 1 -3 0 3 -2 -2 -1 0 3
5 2 9 7 4 0 -3 -4 -3 1 -5 5 3 1 -0 3 3 7 5 4 4 4 4 0 1 -0 -2 1 -0 -4 -5 -5 2 4 1 1 -2 1 3 0 -1 1 -1 -1
3 -2 -6 -1 -2 -5 -3 0 -4 5 -2 -4 -5 -5 -4 -4 0 -4 -1 2 4 1 1 -0 -2 -4 -3 -3 -1 -4 5 -5 -2 -5 -3 1 -1 -1 3 1 2 1 -2 0
2 4 -5 8 3 -6 -4 6 -2 1 -1 -5 -2 2 -3 -4 -1 -1 -5 -4 -3 -7 -5 2 -5 -3 0 0 7 -5 -5 4 1 -5 -4 1 2 2 2 4 2 1 -0 -0
3 -15 -4 -4 -6 -3 -5 -1 3 -2 1 -0 -1 -0 2 -1 -4 -4 -2 0 1 1 3 4 -1 -8 0 -0 -4 -12 -2 -4 3 -3 -1 -3 1 -0 -3 -0 0 -0 -0 -0
-0 3 3 11 -3 2 4 -0 -3 4 5 -0 -4 -4 -0 2 1 3 1 -1 -2 -2 0 2 6 5 -9 5 7 7 -9 48 18 -4 1 -2 3 8 -4 -3 -1 3 3 1
1 3 -1 -0 1 2 -4 -5 4 -5 -2 4 3 3 2 0 -1 -0 -2 4 3 2 3 4 -3 1 -8 7 3 15 2 -2 24 24 5 2 3 4 2 -2 -5 -2 0 -1
-0 -5 -0 -3 5 -3 -12 2 -1 1 -1 0 1 -0 -2 1 1 2 -2 -3 -1 1 0 -2 2 4 -5 1 -3 -11 -8 6 -6 -7 21 14 11 5 -4 4 2 -0 -2 -9
Height
3149 3147 3148 3147 3147 3146 3145 3146 3146 3146 3146 3143 3142 3140 3140 3141 3137 3133 3133 3133 3133 3134 3133 3133 3134 3134 3133 3135 3134 3133 3132 3131 3132 3132 3130 3128 3126 3122 3118 3115 3112 3109 3106 3104
3146 3144 3144 3145 3145 3144 3143 3142 3142 3141 3141 3140 3138 3137 3137 3136 3133 3130 3126 3125 3124 3125 3127 3127 3126 3127 3127 3127 3126 3124 3123 3122 3123 3123 3120 3118 3117 3114 3110 3106 3103 3099 3095 3091
3139 3141 3138 3143 3142 3141 3142 3139 3138 3138 3135 3135 3133 3131 3132 3129 3128 3124 3120 3119 3117 3118 3120 3119 3118 3120 3121 3122 3121 3118 3117 3116 3115 3114 3112 3109 3106 3103 3098 3092 3087 3084 3080 3076
3138 3137 3136 3136 3139 3139 3136 3136 3133 3133 3133 3131 3130 3121 3122 3120 3119 3118 3115 3111 3109 3108 3111 3110 3110 3113 3114 3115 3115 3113 3110 3108 3107 3105 3103 3097 3091 3087 3083 3077 3074 3070 3066 3061
3133 3133 3132 3131 3134 3137 3134 3131 3130 3129 3129 3127 3122 3119 3114 3112 3111 3113 3111 3107 3103 3102 3102 3103 3106 3107 3107 3108 3109 3107 3106 3103 3100 3095 3090 3085 3079 3073 3066 3062 3057 3053 3048 3045
3127 3130 3129 3129 3130 3131 3131 3129 3126 3124 3123 3122 3118 3117 3110 3108 3106 3105 3104 3102 3101 3099 3098 3100 3100 3102 3102 3101 3098 3096 3097 3097 3093 3087 3080 3075 3068 3060 3053 3047 3042 3038 3033 3029
3126 3126 3125 3125 3127 3126 3127 3127 3123 3122 3121 3119 3116 3113 3105 3104 3103 3099 3097 3096 3094 3094 3095 3096 3096 3097 3095 3091 3088 3087 3085 3080 3075 3070 3065 3060 3053 3047 3041 3033 3026 3019 3016 3016
3123 3123 3121 3121 3121 3123 3123 3125 3123 3122 3121 3114 3113 3104 3096 3096 3095 3094 3093 3092 3092 3092 3092 3093 3093 3092 3089 3085 3080 3083 3081 3076 3068 3062 3056 3049 3041 3033 3027 3021 3016 3011 3008 3006
3120 3120 3117 3118 3120 3121 3121 3122 3122 3117 3114 3111 3106 3102 3097 3093 3091 3090 3089 3088 3088 3088 3089 3090 3089 3087 3085 3081 3080 3077 3072 3063 3056 3049 3045 3040 3032 3026 3021 3016 3012 3007 3004 3002
3116 3117 3116 3116 3117 3117 3118 3119 3119 3118 3116 3110 3101 3099 3095 3091 3087 3085 3082 3082 3082 3082 3083 3084 3083 3081 3078 3072 3071 3067 3060 3053 3047 3042 3036 3030 3025 3020 3016 3013 3010 3004 3001 2998
3112 3112 3112 3112 3113 3113 3115 3115 3116 3116 3115 3110 3098 3091 3097 3093 3090 3082 3078 3075 3073 3074 3076 3074 3072 3071 3068 3067 3062 3055 3049 3044 3040 3035 3029 3024 3020 3016 3011 3009 3006 3001 2997 2994
3106 3107 3106 3107 3108 3108 3109 3110 3111 3112 3112 3109 3100 3080 3085 3086 3082 3079 3076 3070 3068 3067 3065 3062 3062 3060 3057 3054 3050 3047 3042 3038 3034 3028 3022 3018 3014 3010 3007 3003 3001 2997 2993 2990
3101 3103 3104 3103 3107 3105 3105 3106 3106 3107 3103 3099 3097 3078 3079 3074 3073 3068 3070 3066 3061 3060 3058 3057 3055 3051 3048 3045 3041 3038 3035 3031 3026 3021 3016 3013 3009 3005 3002 3000 2996 2992 2989 2986
3098 3101 3100 3100 3101 3102 3102 3101 3103 3103 3098 3088 3089 3059 3075 3068 3066 3061 3058 3055 3052 3049 3048 3046 3041 3041 3040 3036 3033 3030 3028 3023 3020 3016 3011 3007 3002 2997 2995 2993 2991 2988 2985 2981
3095 3095 3095 3094 3095 3095 3093 3092 3094 3092 3088 3083 3067 3067 3058 3061 3057 3055 3053 3049 3046 3045 3042 3039 3037 3037 3035 3030 3027 3023 3020 3016 3013 3009 3004 2999 2996 2992 2989 2987 2984 2982 2980 2976
3088 3089 3089 3085 3090 3088 3082 3081 3081 3080 3076 3068 3060 3054 3058 3053 3050 3045 3044 3042 3040 3037 3035 3033 3033 3032 3028 3024 3020 3016 3013 3009 3005 3002 2997 2994 2991 2987 2984 2981 2979 2976 2974 2970
3085 3085 3083 3077 3081 3078 3069 3070 3070 3066 3064 3060 3054 3051 3046 3046 3044 3041 3039 3036 3035 3032 3030 3028 3026 3023 3019 3015 3011 3008 3005 3002 2998 2995 2992 2989 2985 2982 2979 2975 2973 2971 2968 2964
3078 3078 3077 3072 3073 3066 3059 3060 3060 3059 3057 3054 3049 3045 3041 3040 3038 3037 3034 3032 3030 3028 3026 3022 3019 3015 3012 3008 3004 2999 2997 2995 2990 2987 2984 2981 2977 2974 2971 2968 2966 2964 2962 2959
3068 3069 3068 3066 3064 3052 3053 3052 3053 3052 3048 3045 3041 3038 3036 3035 3033 3032 3029 3027 3025 3021 3016 3013 3009 3006 3003 3000 2996 2990 2986 2984 2981 2978 2975 2972 2969 2967 2964 2961 2959 2957 2956 2953
3057 3059 3062 3059 3056 3047 3042 3043 3044 3043 3039 3038 3036 3034 3032 3031 3027 3026 3023 3019 3016 3012 3008 3005 3001 2997 2993 2990 2986 2981 2976 2972 2972 2968 2966 2963 2961 2959 2956 2953 2952 2950 2948 2947
3050 3051 3050 3051 3047 3039 3037 3037 3036 3039 3037 3031 3031 3029 3026 3023 3020 3017 3015 3013 3009 3005 3001 2997 2992 2987 2984 2980 2977 2972 2968 2964 2962 2957 2955 2955 2953 2950 2948 2945 2943 2942 2940 2939
3041 3043 3042 3042 3040 3034 3031 3031 3033 3028 3026 3025 3023 3020 3016 3014 3011 3008 3006 3002 2999 2995 2991 2988 2983 2980 2976 2972 2965 2961 2956 2955 2950 2946 2944 2943 2942 2940 2938 2936 2934 2933 2931 2930
3031 3032 3033 3035 3030 3027 3023 3021 3022 3022 3020 3018 3015 3013 3009 3007 3003 3000 2997 2994 2990 2986 2982 2978 2973 2969 2966 2961 2955 2948 2944 2940 2937 2934 2933 2930 2930 2929 2926 2925 2924 2923 2922 2921
3022 3024 3023 3024 3022 3020 3018 3018 3018 3017 3015 3012 3009 3005 3003 3000 2997 2993 2989 2985 2981 2977 2972 2967 2961 2956 2953 2948 2944 2938 2932 2927 2922 2921 2920 2918 2918 2919 2916 2914 2913 2912 2911 2911
3016 3017 3016 3015 3014 3014 3012 3012 3012 3009 3008 3007 3005 3002 2999 2995 2990 2985 2979 2975 2971 2965 2960 2954 2949 2944 2940 2934 2929 2924 2921 2915 2911 2910 2909 2907 2906 2906 2906 2904 2902 2902 2901 2900
3006 3009 3009 3007 3009 3008 3007 3005 3006 3005 3003 3000 2998 2995 2991 2986 2981 2975 2970 2964 2958 2953 2946 2942 2938 2931 2926 2921 2917 2914 2908 2906 2902 2901 2898 2897 2895 2894 2895 2894 2892 2891 2891 2890